map of AOI home
AOI - Airport
Location
City:  Ancona, Marche, Italy
Name:Falconara
ICAO:LIPY
IATA:AOI

Details
Type:Airport (Aerodrome, Airfield)
Use:Public/Civil
Latitude:4336'59"N (43.616342)
Longitude:1321'44"E (13.362319)
Datum:WGS 1984
Elevation:49 ft (15 m)
Variation:3.28E (WMM2015 magnetic declination)
0.11 annual change
Runways:1
Longest:9718 × 148 ft (2962 × 45 m), paved

Time
Time Zone:UTC+1 (DST+2)
Local Time:

Weather
METAR:LIPY 210550Z 19003KT 3500 BR NSC 10/09 Q1021
TAF:LIPY 210500Z 2106/2206 VRB05KT 4000 BR SCT015
BECMG 2106/2108 7000

Related Locations
Nearby:
Farthest:CHT: 11949 mi / 19230 km
Waitangi [Tuuta], CIT, NZ

Find:

   beyond  
but within

Other Information
Maps:
NOTAMs:
Links:
Sources:

  
flag of Italy
flag of Marche
  

Sectional Chart

Flight Planning
at skyvector.com

Satellite Image

Google Maps Satellite view

 

Copyright © 2004-2017 Karl L. Swartz. All rights reserved.
The Great Circle Mapper name and logo are trademarks of the Great Circle Mapper.
All other trademarks mentioned herein belong to their respective owners.
Please see credits for attibutions and further copyright information.

  Follow gcmap on Facebook Follow gcmap on Twitter Follow gcmap on Google+ GCmap on LinkedIn

hCard Microformat

Geo Microformat